          23 14  02 52.83  +79 36.2   2.049  2.681    30.8 / 268  17.8   54 1.00

          24 14  02 41.48  +79 34.6   2.047  2.673    30.5 / 265  17.8   58  .99

          25 14  02 30.31  +79 31.3   2.045  2.664    30.3 / 262  17.8   64  .97

          26 14  02 19.41  +79 26.3   2.044  2.656    30.0 / 259  17.8   71  .92

          27 14  02 08.83  +79 19.8   2.043  2.647    29.6 / 256  17.8   79  .84

          28 14  01 58.61  +79 11.8   2.042  2.638    29.3 / 253  17.8   87  .76

          29 14  01 48.79  +79 02.5   2.041  2.630    29.0 / 250  17.7   95  .67

          30 14  01 39.40  +78 52.0   2.040  2.621    28.6 / 247  17.7  102  .57

          31 14  01 30.45  +78 40.3   2.040  2.613    28.3 / 244  17.7  109  .48

2008 Jan.  1 14  01 21.97  +78 27.5   2.040  2.605    27.9 / 242  17.7  115  .38

           2 14  01 13.94  +78 13.9   2.040  2.596    27.5 / 239  17.7  119  .29

           3 14  01 06.36  +77 59.5   2.040  2.588    27.1 / 237  17.7  123  .21

           4 14  00 59.23  +77 44.4   2.041  2.579    26.7 / 235  17.7  124  .14

           5 14  00 52.53  +77 28.7   2.042  2.571    26.3 / 233  17.7  124  .08

NAKANO

         **** Don't distribute anyone except personal use only ****

                (C) Copyright 2007 OAA/ComputingSection

write mail from CFAD0::NAKANO on 2007-12-06 23:59:51(JST).

 



◎C/2007 M3の軌道と予報位置



 美星スペースガードセンターから6月27日の観測が報告されました.彼らのCCD

全光度は,16.7等でした.

 

    C/2007 M3 (LINEAR)

T 2007 Sept. 4.41262 TT                                 Nakano

q   3.4730741            (2000.0)            P               Q

                   Peri.  125.63991     +0.07546653     -0.97532948

                   Node    41.52454     -0.98577198     -0.04163613

e   1.0            Incl.  161.76410     -0.15019454     -0.21679217

From 108 observations 2007 June 21-27.

 

Date/        TT  R.A.(2000) Decl.     Delta   r     Daily motion  Mag.  Moon Age

              h    h  m       。  ,                      ,  / PA 。  m1      。

2007 June 25 12  19 38.20  +01 58.3   2.634  3.534    36.9 / 264  16.7   84  .77

          26 12  19 35.76  +01 54.2   2.625  3.532    37.2 / 263  16.7   72  .84

          27 12  19 33.29  +01 49.8   2.616  3.531    37.6 / 263  16.7   61  .90

          28 12  19 30.80  +01 45.3   2.608  3.529    37.9 / 263  16.7   50  .95

          29 12  19 28.29  +01 40.6   2.600  3.527    38.2 / 263  16.7   40  .99

          30 12  19 25.76  +01 35.6   2.593  3.526    38.5 / 262  16.7   32 1.00

     July  1 12  19 23.22  +01 30.5   2.587  3.524    38.8 / 262  16.7   27  .99

           2 12  19 20.65  +01 25.2   2.581  3.523    39.1 / 262  16.7   29  .96

           3 12  19 18.07  +01 19.7   2.575  3.521    39.3 / 262  16.7   35  .91

           4 12  19 15.48  +01 14.0   2.571  3.520    39.5 / 261  16.6   46  .83

           5 12  19 12.88  +01 08.1   2.566  3.518    39.6 / 261  16.6   57  .74

           6 12  19 10.27  +01 02.1   2.563  3.517    39.8 / 261  16.6   70  .64

           7 12  19 07.65  +00 55.9   2.560  3.515    39.9 / 261  16.6   83  .52

           8 12  19 05.02  +00 49.5   2.557  3.514    40.0 / 261  16.6   96  .41

           9 12  19 02.39  +00 42.9   2.555  3.513    40.1 / 260  16.6  110  .30

          10 12  18 59.76  +00 36.2   2.554  3.511    40.1 / 260  16.6  123  .20

          11 12  18 57.13  +00 29.3   2.553  3.510    40.1 / 260  16.6  135  .12

          12 12  18 54.49  +00 22.3   2.553  3.509    40.1 / 260  16.6  145  .05

          13 12  18 51.87  +00 15.1   2.554  3.507    40.0 / 259  16.6  152  .01

          14 12  18 49.24  +00 07.8   2.555  3.506    39.9 / 259  16.6  152  .00

          15 12  18 46.63  +00 00.3   2.556  3.505    39.8 / 259  16.6  146  .01

          16 12  18 44.02  -00 07.3   2.558  3.503    39.7 / 259  16.6  137  .05

          17 12  18 41.43  -00 15.0   2.561  3.502    39.5 / 259  16.6  126  .10

          18 12  18 38.84  -00 22.8   2.565  3.501    39.3 / 258  16.6  115  .17

          19 12  18 36.27  -00 30.7   2.568  3.500    39.1 / 258  16.6  103  .25

          20 12  18 33.72  -00 38.7   2.573  3.499    38.9 / 258  16.6   92  .33

          21 12  18 31.19  -00 46.8   2.578  3.498    38.6 / 258  16.6   81  .43

          22 12  18 28.67  -00 55.0   2.584  3.497    38.3 / 258  16.6   70  .52

          23 12  18 26.18  -01 03.3   2.590  3.496    38.0 / 257  16.6   59  .62

          24 12  18 23.71  -01 11.7   2.596  3.495    37.7 / 257  16.6   48  .71

          25 12  18 21.26  -01 20.1   2.604  3.494    37.3 / 257  16.7   39  .79

          26 12  18 18.83  -01 28.6   2.611  3.493    36.9 / 257  16.7   31  .87

          27 12  18 16.44  -01 37.1   2.620  3.492    36.6 / 256  16.7   26  .93

          28 12  18 14.07  -01 45.7   2.628  3.491    36.1 / 256  16.7   28  .97

          29 12  18 11.72  -01 54.3   2.638  3.490    35.7 / 256  16.7   35 1.00

          30 12  18 09.41  -02 02.9   2.647  3.489    35.3 / 256  16.7   46 1.00

          31 12  18 07.13  -02 11.6   2.657  3.488    34.8 / 256  16.7   58  .97

     Aug.  1 12  18 04.88  -02 20.3   2.668  3.487    34.4 / 255  16.7   71  .92

NAKANO

         **** Don't distribute anyone except personal use only ****

                (C) Copyright 2007 OAA/ComputingSection

write mail from CFAD0::NAKANO on 2007-06-28 23:48:05(JST).

 



戻ります。